Weather History for KPEX - March, 2013

Change the Weather History Date:

Wednesday, March 6, 2013

  Actual Average (KLJF) Record (KLJF)
Temperature  
Mean Temperature 11 °F -  
Max Temperature 22 °F 36 °F 71 °F (1987)
Min Temperature 0 °F 14 °F -15 °F (1989)
Degree Days  
Heating Degree Days 54    
Moisture  
Dew Point 14 °F    
Average Humidity 83    
Maximum Humidity 92    
Minimum Humidity 75    
Precipitation  
Precipitation 0.00 in - - ()
Sea Level Pressure  
Sea Level Pressure 30.35 in    
Wind  
Wind Speed 3 mph (NW)    
Max Wind Speed 7 mph    
Max Gust Speed -    
Visibility 9 miles    
Events Fog , Snow    
Averages and records for this station are not official NWS values.
T = Trace of Precipitation, MM = Missing Value Source: NWS Daily Summary

Daily Weather History Graph

Daily Weather History Graph

Search for Another Location

Airport or City:

Trip Planner

Search our weather history database for the weather conditions in past years. The results will help you decide how hot, cold, wet, or windy it might be!

Date:

Astronomy

Mar. 06, 2013 Rise Set
Actual Time 6:47 AM CST 6:13 PM CST
Civil Twilight 6:18 AM CST 6:42 PM CST
Nautical Twilight 5:44 AM CST 7:17 PM CST
Astronomical Twilight 5:09 AM CST 7:51 PM CST
Moon 3:09 AM CST (3/6) 12:44 PM CST (3/6)
Length of Visible Light 12h 24m
Length of Day
11h 25m
Waning Crescent, 29% of the Moon is Illuminated
Mar 6
Waning Crescent
Mar 11
New
Mar 19
First Quarter
Mar 27
Full
Apr 2
Last Quarter

Hourly Weather History & Observations

Time (CST) Temp. Windchill Dew Point Humidity Pressure Visibility Wind Dir Wind Speed Gust Speed Precip Events Conditions
12:13 AM 21.7 °F 15.5 °F 18.0 °F 85% 30.32 in 10.0 mi NW 4.6 mph - N/A   Overcast
12:33 AM 21.7 °F 17.0 °F 18.1 °F 86% 30.32 in 10.0 mi NW 3.5 mph - N/A   Overcast
12:53 AM 22.5 °F 15.1 °F 18.3 °F 84% 30.33 in 10.0 mi NW 5.8 mph - N/A   Overcast
1:13 AM 22.5 °F 17.8 °F 18.3 °F 84% 30.33 in 10.0 mi NNW 3.5 mph - N/A   Overcast
1:33 AM 22.6 °F - 18.3 °F 83% 30.34 in 10.0 mi Calm Calm - N/A   Overcast
1:53 AM 21.7 °F 17.0 °F 18.1 °F 86% 30.34 in 10.0 mi WNW 3.5 mph - N/A   Overcast
2:13 AM 20.3 °F 15.4 °F 17.6 °F 89% 30.35 in 10.0 mi West 3.5 mph - N/A   Overcast
2:33 AM 19.9 °F 13.4 °F 17.1 °F 89% 30.35 in 10.0 mi West 4.6 mph - N/A   Overcast
2:53 AM 19.4 °F 11.5 °F 16.7 °F 89% 30.35 in 10.0 mi West 5.8 mph - N/A   Overcast
3:13 AM 19.0 °F 12.3 °F 16.3 °F 89% 30.34 in 10.0 mi West 4.6 mph - N/A   Overcast
3:33 AM 19.0 °F 12.3 °F 16.2 °F 89% 30.34 in 10.0 mi West 4.6 mph - N/A   Overcast
3:53 AM 18.9 °F - 15.8 °F 88% 30.34 in 10.0 mi Calm Calm - N/A   Overcast
4:13 AM 18.7 °F 13.5 °F 15.8 °F 89% 30.34 in 10.0 mi West 3.5 mph - N/A   Overcast
4:33 AM 18.5 °F 11.7 °F 15.6 °F 89% 30.35 in 10.0 mi West 4.6 mph - N/A   Overcast
4:53 AM 18.0 °F 11.1 °F 14.9 °F 88% 30.36 in 10.0 mi West 4.6 mph - N/A   Overcast
5:13 AM 17.6 °F 8.2 °F 14.7 °F 88% 30.37 in 10.0 mi West 6.9 mph - N/A   Overcast
5:33 AM 17.2 °F 11.9 °F 14.4 °F 88% 30.37 in 10.0 mi West 3.5 mph - N/A   Overcast
5:53 AM 16.7 °F 9.6 °F 14.0 °F 89% 30.37 in 10.0 mi West 4.6 mph - N/A   Overcast
6:13 AM 16.7 °F 11.2 °F 14.0 °F 89% 30.38 in 10.0 mi West 3.5 mph - N/A   Overcast
6:33 AM 16.9 °F 11.5 °F 14.0 °F 88% 30.38 in 10.0 mi WSW 3.5 mph - N/A   Overcast
6:53 AM 17.6 °F 10.7 °F 14.9 °F 89% 30.39 in 10.0 mi West 4.6 mph - N/A   Overcast
7:13 AM 19.4 °F 11.5 °F 15.8 °F 86% 30.39 in 10.0 mi NW 5.8 mph - N/A   Overcast
7:33 AM 20.1 °F 12.3 °F 16.0 °F 84% 30.40 in 10.0 mi WNW 5.8 mph - N/A   Overcast
7:53 AM 20.3 °F 13.8 °F 15.8 °F 83% 30.40 in 10.0 mi NNW 4.6 mph - N/A   Overcast
8:13 AM 20.3 °F 12.5 °F 15.8 °F 83% 30.40 in 10.0 mi NW 5.8 mph - N/A   Overcast
8:33 AM 20.1 °F 11.3 °F 15.6 °F 83% 30.40 in 10.0 mi NW 6.9 mph - N/A Snow Light Snow
8:53 AM 20.1 °F 13.6 °F 15.6 °F 83% 30.40 in 10.0 mi NNW 4.6 mph - N/A   Overcast
9:13 AM 19.9 °F 11.1 °F 15.4 °F 83% 30.40 in 10.0 mi NNW 6.9 mph - N/A Snow Light Snow
9:33 AM 20.1 °F 12.3 °F 15.4 °F 82% 30.41 in 10.0 mi North 5.8 mph - N/A   Overcast
9:53 AM 20.1 °F 15.2 °F 15.6 °F 83% 30.40 in 10.0 mi NNW 3.5 mph - N/A   Overcast
10:13 AM 20.3 °F 12.5 °F 15.8 °F 83% 30.40 in 10.0 mi NNW 5.8 mph - N/A   Overcast
10:33 AM 20.3 °F 15.4 °F 15.6 °F 82% 30.40 in 10.0 mi NW 3.5 mph - N/A   Overcast
10:53 AM 20.3 °F 13.8 °F 15.4 °F 81% 30.40 in 7.0 mi NW 4.6 mph - N/A Snow Light Snow
11:13 AM 20.7 °F 14.2 °F 15.4 °F 80% 30.39 in 10.0 mi NNW 4.6 mph - N/A   Overcast
11:33 AM 20.8 °F - 15.6 °F 80% 30.39 in 7.0 mi Calm Calm - N/A   Overcast
11:53 AM 21.2 °F - 15.6 °F 79% 30.38 in 10.0 mi Calm Calm - N/A   Overcast
12:13 PM 21.4 °F 16.6 °F 15.6 °F 78% 30.38 in 10.0 mi NE 3.5 mph - N/A   Overcast
12:33 PM 21.6 °F 15.3 °F 15.6 °F 78% 30.38 in 10.0 mi North 4.6 mph - N/A   Overcast
12:53 PM 21.6 °F 16.8 °F 15.6 °F 78% 30.38 in 10.0 mi NNW 3.5 mph - N/A   Overcast
1:13 PM 21.7 °F - 15.4 °F 77% 30.37 in 10.0 mi Calm Calm - N/A   Overcast
1:33 PM 22.5 °F - 15.8 °F 76% 30.36 in 10.0 mi Calm Calm - N/A   Overcast
1:53 PM 22.5 °F - 15.6 °F 75% 30.35 in 10.0 mi Calm Calm - N/A   Overcast
2:13 PM 22.5 °F - 16.0 °F 76% 30.35 in 10.0 mi Calm Calm - N/A   Overcast
2:32 PM 22.1 °F - 15.6 °F 76% 30.34 in 10.0 mi Calm Calm - N/A   Overcast
2:53 PM 22.1 °F - 15.6 °F 76% 30.35 in 10.0 mi Calm Calm - N/A   Overcast
3:13 PM 22.3 °F - 15.8 °F 76% 30.35 in 10.0 mi Calm Calm - N/A   Overcast
3:33 PM 22.1 °F 15.9 °F 15.6 °F 76% 30.34 in 10.0 mi North 4.6 mph - N/A   Overcast
4:13 PM 22.1 °F - 15.6 °F 76% 30.34 in 10.0 mi Calm Calm - N/A   Overcast
4:33 PM 21.7 °F - 14.9 °F 75% 30.34 in 10.0 mi Calm Calm - N/A   Overcast
4:53 PM 21.7 °F - 15.4 °F 77% 30.33 in 10.0 mi Calm Calm - N/A   Overcast
5:13 PM 21.6 °F - 15.1 °F 76% 30.33 in 10.0 mi Calm Calm - N/A   Overcast
5:33 PM 21.6 °F - 15.3 °F 77% 30.34 in 10.0 mi Calm Calm - N/A   Overcast
5:53 PM 21.2 °F - 15.1 °F 77% 30.33 in 10.0 mi Calm Calm - N/A   Overcast
6:13 PM 20.7 °F - 15.3 °F 80% 30.33 in 10.0 mi Calm Calm - N/A   Overcast
6:33 PM 20.3 °F - 15.1 °F 80% 30.33 in 10.0 mi Calm Calm - N/A   Overcast
6:53 PM 20.3 °F 13.8 °F 15.1 °F 80% 30.33 in 10.0 mi ENE 4.6 mph - N/A   Overcast
7:13 PM 20.1 °F - 14.9 °F 80% 30.33 in 10.0 mi Calm Calm - N/A   Overcast
7:33 PM 19.8 °F - 14.5 °F 80% 30.33 in 10.0 mi Calm Calm - N/A   Overcast
7:53 PM 18.1 °F - 13.1 °F 81% 30.33 in 10.0 mi Calm Calm - N/A   Mostly Cloudy
8:13 PM 17.4 °F - 13.6 °F 85% 30.32 in 10.0 mi Calm Calm - N/A   Scattered Clouds
8:33 PM 15.6 °F - 12.6 °F 88% 30.32 in 10.0 mi Calm Calm - N/A   Scattered Clouds
8:52 PM 12.4 °F - 10.2 °F 91% 30.32 in 10.0 mi Calm Calm - N/A   Clear
9:13 PM 13.1 °F - 11.1 °F 92% 30.32 in 10.0 mi Calm Calm - N/A   Clear
9:33 PM 6.3 °F - 3.2 °F 87% 30.32 in 4.0 mi Calm Calm - N/A   Clear
9:52 PM 5.2 °F - 2.1 °F 87% 30.32 in 7.0 mi Calm Calm - N/A   Clear
10:13 PM 5.0 °F - 1.8 °F 86% 30.33 in 5.0 mi Calm Calm - N/A   Clear
10:33 PM 4.8 °F - 1.9 °F 88% 30.34 in 0.8 mi Calm Calm - N/A   Mist
10:52 PM 1.0 °F - -1.8 °F 88% 30.34 in 2.5 mi Calm Calm - N/A   Clear
11:13 PM 0.7 °F - -2.7 °F 86% 30.34 in 10.0 mi Calm Calm - N/A   Clear
11:33 PM 1.4 °F - -1.8 °F 86% 30.33 in 0.5 mi Calm Calm - N/A Fog Light Freezing Fog
11:53 PM 1.0 °F - -2.2 °F 86% 30.33 in 0.2 mi Calm Calm - N/A Fog Light Freezing Fog